Location: Sungai Mapu
(2.6000°N, 113.7167°E)
Time: 13:24:56
(UTC+00:00)

Daily predictions for brighter satellites

Satellite Brightness Start Highest point End
(mag) Time Altitude Azimuth Time Altitude Azimuth Time Altitude Azimuth
Cosmos 2315 Rocket 3.9 12:00:03 10° S 12:06:24 72° E 12:12:41 10° N
Okean O Rocket 2.7 12:02:34 10° S 12:06:43 43° WSW 12:10:53 10° NNW
NOSS 3-4 (A) 4.4 12:00:26 10° N 12:08:08 49° ENE 12:11:12 35° ESE
NOSS 3-4 (C) 4.4 12:00:34 10° N 12:08:13 48° ENE 12:11:11 35° ESE
ARIANE 5 DEB (SYLDA) 2.7 12:07:28 10° W 12:10:27 74° S 12:10:43 70° SE
Cosmos 2251 Rocket 3.4 12:06:16 10° N 12:11:36 73° ENE 12:13:06 48° SSE
Okean 1 Rocket 2.9 12:07:54 10° N 12:12:16 88° E 12:13:09 57° S
Okean-O 3.5 12:14:27 35° NE 12:14:27 35° NE 12:17:33 10° N
YAOGAN 1 4.0 12:09:37 11° SSW 12:13:28 35° WSW 12:17:24 10° NW
Meteor 2-5 Rocket 4.0 12:09:09 10° SSW 12:14:38 64° W 12:20:05 10° N
ARIANE 5 R/B 1.6 12:03:59 10° W 12:15:44 81° N 12:16:15 66° ENE
ARIANE 5 DEB (SYLDA 5A) 3.5 12:13:07 10° W 12:14:37 24° WSW 12:14:37 24° WSW
SL-4 R/B 4.3 12:12:28 10° SSW 12:12:39 11° SSW 12:12:39 11° SSW
Cosmos 1238 Rocket 4.4 12:11:22 10° NNW 12:17:42 61° W 12:23:27 11° S
Cosmos 1975 Rocket 4.1 12:15:16 10° SSW 12:19:31 44° W 12:23:46 10° NNW
Meteor 1-24 Rocket 4.1 12:19:42 10° SSW 12:24:53 58° W 12:30:05 10° N
Atlas Centaur 2 3.8 12:22:53 10° NNW 12:26:37 18° NNE 12:27:16 17° NNE
Cosmos 1331 Rocket 4.0 12:29:16 67° NE 12:29:16 67° NE 12:33:55 10° NNE
Meteor 2-10 Rocket 3.4 12:25:42 10° N 12:30:19 71° NE 12:30:19 71° NE
Meteosat 1 Rocket2 4.3 12:26:00 10° NW 12:30:33 34° NNE 12:30:33 34° NNE
H-2A R/B 2.4 12:28:53 10° N 12:33:08 68° NW 12:33:08 68° NW
Meteor 2-12 Rocket 4.3 12:30:07 10° N 12:36:02 71° ENE 12:36:02 71° ENE
Cosmos 1300 4.3 12:34:42 10° NNW 12:37:05 33° NW 12:37:05 33° NW
ARIANE 5 R/B 3.8 12:35:48 10° WSW 12:37:34 15° SW 12:37:34 15° SW
CZ-4 R/B 3.8 12:36:51 14° SW 12:38:58 20° WSW 12:42:03 10° NW
Delta 2 Rocket 3.7 12:32:35 10° WSW 12:39:04 82° SSE 12:39:04 82° SSE
COBE Rocket 4.2 12:40:03 61° WNW 12:40:03 61° WNW 12:44:06 10° NNW
Ariane H10+ 3.2 12:38:27 10° W 12:39:58 36° W 12:39:58 36° W
BREEZE-M DEB (TANK) 4.0 12:27:16 10° SW 12:43:16 89° SE 12:44:01 69° NE
Hubble Space Telescope 3.2 12:43:25 10° W 12:44:49 16° WSW 12:44:49 16° WSW
CSL-04 Debris 4.4 12:47:03 66° W 12:47:03 66° W 12:52:18 10° NNW
ATLAS 3B CENTAUR R/B 4.0 12:32:37 10° NW 12:48:09 79° NNE 12:52:13 53° ESE
BLOCK DM-SL R/B 3.9 12:45:39 10° W 12:50:32 86° S 21:10:47 10° E
Centaur D AC-28 3.4 12:10:04 10° WNW 13:00:07 80° NNE 13:01:23 68° E
Ariane H10+ 3.7 13:05:43 10° W 13:10:40 83° N 23:15:08 10° E
USA 215 4.5 19:20:12 10° NNE 19:23:39 34° NNE 19:23:39 34° NNE
Ariane H10+ 3.7 19:47:17 49° SSE 19:47:17 49° SSE 20:01:45 10° ESE
deb Olympus 4.5 19:50:46 64° E 19:50:46 64° E 20:05:35 10° E
SL-16 R/B 3.1 19:48:43 10° N 19:53:49 45° ENE 19:53:49 45° ENE
Cosmos 1844 Rocket 3.5 20:01:16 44° NNE 20:01:16 44° NNE 20:05:01 10° NNE
Milstar 3 Cent rocket 4.1 20:02:17 16° N 20:02:17 16° N 20:04:18 10° NNE
NOSS 3-1 (C) 3.9 20:07:55 41° NNE 20:07:55 41° NNE 20:11:06 10° NNE
CZ-4C R/B 2.8 20:22:36 34° N 20:22:36 34° N 20:25:07 10° NNE
ARIANE 5 R/B 4.5 20:23:36 57° SSE 20:23:36 57° SSE 20:28:59 10° E
Meteor 2-4 Rocket 4.4 20:18:21 10° NNW 20:22:21 44° NW 20:22:21 44° NW
NOSS 3-1 (A) 3.5 20:23:55 45° SE 20:24:29 47° ESE 20:29:12 10° NE
CZ-4B R/B 4.4 20:20:32 10° NNE 20:25:07 41° ESE 20:26:51 30° SSE
Lacrosse 4 Rocket 4.0 20:25:03 10° NNW 20:25:16 11° NNW 20:25:16 11° NNW
ATLAS 5 CENTAUR R/B 3.4 20:26:39 36° SSW 20:30:05 51° SE 21:00:54 10° ENE
CZ-2C R/B 3.6 20:31:44 11° ESE 20:31:44 11° ESE 20:32:08 10° ESE
CZ-2C R/B 4.2 20:29:44 10° NE 20:34:03 36° ESE 20:37:30 15° SSE
ARIANE 5 DEB (SYLDA) 4.2 20:38:15 35° SSE 20:38:15 35° SSE 20:46:10 10° E
SWIFT 3.4 20:40:59 34° SE 20:40:59 34° SE 20:43:35 10° SE
ARIANE 5 R/B 4.4 20:37:54 10° NNW 20:39:17 16° NW 20:39:17 16° NW
Envisat 2.8 20:37:00 10° N 20:42:03 84° WNW 20:43:22 51° SSW
NOSS 2-2 (E) 3.7 20:41:29 55° SSE 20:42:13 66° ESE 20:45:59 10° NNE
Meteor 2-9 Rocket 4.2 20:42:54 27° S 20:46:15 86° E 20:51:54 10° N
CZ-2C R/B 2.7 20:44:45 10° N 20:48:44 75° WNW 20:48:44 75° WNW
SL-08 R/B 4.1 20:46:40 10° SSE 20:51:22 53° ENE 20:56:06 10° N
BREEZE-M DEB (TANK) 4.5 20:55:40 28° SSW 20:55:40 28° SSW 21:00:40 10° SSE
NOAA 11 4.2 21:00:30 10° NNE 21:05:54 80° ESE 21:11:22 10° S
Nadezhda 4 Rocket 4.0 21:01:16 10° S 21:07:31 85° E 21:13:40 10° N
ASTRO E2 3.6 21:08:47 29° SSW 21:08:47 29° SSW 21:11:39 10° SSE
Cosmos 1862 Rocket 4.1 21:05:44 10° NNW 21:09:40 34° W 21:10:02 34° WSW
DELTA 2 DEB (DPAF) 4.3 21:07:01 18° S 21:10:02 48° WSW 21:14:16 10° NNW
H-2A R/B 3.2 21:09:08 10° N 21:12:42 40° W 21:13:33 34° WSW
ARIANE 5 R/B 3.3 21:12:24 27° WSW 21:14:53 78° S 21:40:31 10° E
Meteor 1-4 Rocket 2.9 21:13:16 10° S 21:16:43 62° E 21:20:13 10° NNE
PSLV R/B 4.4 21:14:43 10° NNW 21:18:18 28° WNW 21:19:14 26° WSW
Meteor 2-15 Rocket 4.4 21:14:22 10° N 21:20:28 73° W 21:26:32 10° S
BREEZE-M R/B 4.4 21:16:03 10° NNW 21:20:31 34° NE 21:23:15 10° ESE
MINOTAUR 4 R/B 4.2 21:18:04 10° SSE 21:21:34 73° ENE 21:25:03 10° N
Spelda 4.1 21:22:39 23° SW 21:23:40 27° S 21:25:56 10° SE
APEX 2.4 21:21:09 10° NNW 21:23:49 57° WSW 21:26:51 10° S
Sakura Rocket 2.8 21:21:11 10° NW 21:24:54 69° NNE 21:28:32 10° ESE
DELTA 4 R/B 3.8 21:22:51 10° NNW 21:25:11 27° NE 21:30:46 10° E
NOSS 2-2 (D) 3.9 21:23:02 21° SW 21:25:54 45° WNW 21:29:32 10° N
ARIANE 44L R/B 2.5 21:19:09 13° W 21:26:07 69° SSW 21:28:39 10° ESE
Okean 3 3.6 21:23:34 10° N 21:27:42 75° E 21:31:51 10° S
Cosmos 2278 Rocket 3.0 21:22:45 10° S 21:28:15 53° ESE 21:33:44 10° NNE
Meteor 2-14 Rocket 4.4 21:23:04 10° SSW 21:29:01 60° W 21:35:00 10° N
Cosmos 2242 Rocket 4.1 21:25:33 10° N 21:30:00 63° E 21:34:31 10° SSE
CZ-3B Rocket 3.0 21:30:54 17° WSW 21:32:53 23° SSW 21:36:00 10° SE
ARIANE 3 DEB 3.5 21:28:28 11° WNW 21:33:51 47° N 21:36:48 10° ENE
Meteor 2-21 Rocket 4.4 21:28:04 10° S 21:34:08 85° W 21:40:14 10° N
Aureole 3 Rocket 4.1 21:33:33 10° NNE 21:37:10 49° E 21:42:03 10° SSE
CZ-4B R/B 4.0 21:34:15 10° N 21:38:39 79° W 21:42:57 10° SSW
Okean 1-7 3.2 21:37:00 10° NNW 21:41:09 48° W 21:45:22 10° SSW
Cosmos 2084 3.8 21:37:38 10° NW 21:41:58 48° WSW 21:46:30 10° S
Cosmos 292 Rocket 3.7 21:38:18 10° NNW 21:43:05 72° WSW 21:47:54 10° S
OAO 2 Rocket 4.5 21:40:18 12° W 21:44:20 30° NW 21:48:42 10° NNE
DELTA 2 R/B(2) 3.3 21:43:14 17° SW 21:44:31 79° NW 21:47:32 10° NE
ARIANE 5 R/B 2.1 21:43:06 13° W 21:45:04 86° S 21:51:39 10° E
USA 229 DEB 4.1 21:42:15 11° SW 21:47:35 36° WNW 21:53:11 10° N
USA 229 4.1 21:42:15 11° SW 21:47:40 36° WNW 21:53:18 10° N
Cosmos 1842 3.2 21:45:18 10° NNW 21:49:09 64° W 21:53:02 10° S
H-2A R/B 3.6 21:44:55 10° NE 21:49:24 35° ESE 21:53:51 10° SSE
Cosmos 1943 3.3 21:45:22 10° NNW 21:50:50 55° WSW 21:56:18 10° S
Cosmos 1975 4.2 21:48:36 10° SW 21:51:35 20° W 21:54:32 10° NW
ARIANE 5 R/B 4.2 21:17:44 12° W 21:52:46 57° S 21:59:03 10° ESE
Cosmos 2279 Rocket 4.3 21:48:19 10° NNW 21:54:07 43° W 21:59:56 10° SSW
Cosmos 1092 Rocket 4.0 21:48:03 10° S 21:54:12 68° W 22:00:16 10° N
Ariane H10 3.7 21:51:24 10° WSW 21:54:31 29° S 21:57:15 10° ESE
Delta 198 3.7 21:51:23 10° WSW 21:56:22 65° NNW 22:00:33 10° NE
Genesis I 3.4 21:53:34 10° SW 21:57:18 51° WNW 22:01:07 10° N
ADEOS 4.2 21:54:06 10° NNE 21:59:14 62° ESE 22:04:24 10° S
Cosmos 1939 Rocket 2.8 21:55:56 10° N 21:59:42 64° W 22:03:30 10° SSW
USA 81 4.3 21:56:38 10° NNW 22:01:40 47° W 22:06:42 10° SSW
ARIANE 44L R/B 3.3 21:51:32 10° W 22:02:36 52° SSW 22:05:31 10° ESE
